sat.trackr.live / text

‹ back to catalog

QIANFAN-91

NORAD 66033 · 2025-233A

PAYLOAD ACTIVE UNKNOWN

§ Identity

Operator
Country
PRC
Launch date
2025-10-17
Launch site
TAISC
Launch vehicle
Mass (kg)
RCS (m²)

External: N2YO · Heavens-Above · Gunter

§ Orbital elements

Epoch: 2026-05-25T04:10:13.759968Z

Period
106.59 min
Inclination
89.0020°
Eccentricity
0.0002100
Mean motion
13.51005647 rev/d
Perigee alt
1,067.0 km
Apogee alt
1,070.1 km
Semi-major
7,446.7 km
B*
1.7686e-4
RAAN
45.5147°
Arg perigee
67.7808°
Mean anomaly
292.3565°
Rev number
3,007

§ Raw data

QIANFAN-911 66033U 25233A   26145.17377037  .00000126  00000+0  17686-3 0  99952 66033  89.0020  45.5147 0002100  67.7808 292.3565 13.51005647 30078

JSON: /api/v1/satellites/66033 · /tle

For live sub-satellite position, see the globe view (requires WebGL).

§ Visibility from observer

Set your observer location to see the next 7 days of passes ≥ 10°. The values pass through the URL so the page stays shareable.

No JS? Fill the form by hand. The geolocation button needs JavaScript.